Home > Weather > Luton > Past weeks

Flag for United Kingdom Weather for the Past 2 Weeks in Luton, England, United Kingdom

Now
37 °F

Chilly.


Feels Like: 30 °F
Forecast: 35 / 55 °F
Wind: 10 mph from Northwest

Location: Luton Airport

Current Time: Apr 30, 2016 at 7:02:15 AM

Latest Report: Apr 30, 2016 at 6:20 AM


Visibility: N/A

Pressure: 30.07 "Hg

Humidity: 87%

Dew Point: 34 °F

Location of LutonLocation

Historic Weather in Luton — Graph

°F

Luton Temperature Yesterday

Maximum temperature yesterday: 52 °F (at 1:50 PM)
Minimum temperature yesterday: 37 °F (at 4:20 AM)
Average temperature yesterday: 44 °F

High & Low Weather Summary for the Past Weeks

 TemperatureHumidityPressure
High59 °F (Apr 21, 1:50 PM)100% (Apr 15, 5:50 AM)30.45 "Hg (Apr 15, 5:50 AM)
Low30 °F (Apr 28, 5:50 AM)40% (Apr 27, 1:20 PM)29.45 "Hg (Apr 15, 5:20 PM)
Average44 °F78%29.98 "Hg
* Reported Apr 15 5:50 AM — Apr 30 5:20 AM, Luton, Weather by CustomWeather, © 2016

Note: Actual official high and low records may vary slightly from our data, if they occured in-between our weather recording intervals... More about our weather records

Advertising

Luton Weather History for the Previous 24 Hours

Scroll right to see more
 ConditionsComfort  
Time TempWeatherWind HumidityBarometerVisibility
5:20 AM
Sat, Apr 30
34 °FChilly.9 mph93%30.04 "HgN/A
4:50 AM36 °FChilly.8 mph87%30.04 "HgN/A
4:20 AM36 °FChilly.10 mph93%30.04 "HgN/A
3:50 AM36 °FChilly.9 mph93%30.01 "HgN/A
3:20 AM36 °FChilly.8 mph93%30.01 "HgN/A
2:50 AM36 °FChilly.8 mph93%30.01 "HgN/A
2:20 AM37 °FChilly.9 mph87%30.01 "HgN/A
1:50 AM37 °FChilly.10 mph87%29.98 "HgN/A
12:50 AM39 °FChilly.12 mph81%29.98 "HgN/A
12:20 AM39 °FChilly.12 mph81%29.98 "HgN/A
11:50 PM
Fri, Apr 29
39 °FChilly.10 mph81%29.95 "HgN/A
11:20 PM39 °FChilly.9 mph81%29.95 "HgN/A
10:50 PM41 °FPassing clouds.10 mph76%29.95 "HgN/A
10:20 PM41 °FPassing clouds.10 mph76%29.95 "HgN/A
9:50 PM41 °FQuite cool.6 mph76%29.92 "HgN/A
9:20 PM43 °FQuite cool.8 mph71%29.92 "HgN/A
8:50 PM43 °FPassing clouds.10 mph71%29.92 "HgN/A
8:20 PM46 °FCool.15 mph62%29.89 "HgN/A
7:50 PM46 °FCool.13 mph57%29.86 "HgN/A
7:20 PM48 °FPassing clouds.16 mph54%29.86 "HgN/A
6:50 PM48 °FPassing clouds.15 mph54%29.86 "HgN/A
6:20 PM48 °FScattered clouds.17 mph54%29.83 "HgN/A
5:50 PM50 °FCool.18 mph47%29.83 "HgN/A
5:20 PM50 °FPartly sunny.21 mph50%29.80 "HgN/A
4:50 PM50 °FScattered clouds.21 mph58%29.80 "HgN/A
4:20 PM48 °FPartly sunny.20 mph62%29.80 "HgN/A
3:50 PM48 °FScattered clouds.21 mph66%29.80 "HgN/A
3:20 PM45 °FScattered clouds.16 mph76%29.80 "HgN/A
2:50 PM43 °FLight rain. Broken clouds.23 mph81%29.80 "HgN/A
2:20 PM50 °FPartly sunny.23 mph50%29.77 "HgN/A
1:50 PM52 °FPartly sunny.28 mph44%29.77 "HgN/A
1:20 PM50 °FPassing clouds.18 mph58%29.77 "HgN/A
12:50 PM50 °FPassing clouds.18 mph50%29.77 "HgN/A
12:20 PM48 °FPartly sunny.23 mph54%29.77 "HgN/A
11:50 AM46 °FPartly sunny.24 mph53%29.77 "HgN/A
11:20 AM48 °FPartly sunny.22 mph54%29.77 "HgN/A
10:50 AM46 °FPassing clouds.24 mph53%29.77 "HgN/A
10:20 AM46 °FPartly sunny.23 mph62%29.77 "HgN/A
9:50 AM45 °FPartly sunny.21 mph66%29.77 "HgN/A
9:20 AM45 °FPassing clouds.20 mph66%29.77 "HgN/A
8:50 AM43 °FQuite cool.20 mph71%29.77 "HgN/A
8:20 AM41 °FQuite cool.22 mph76%29.77 "HgN/A
7:50 AM41 °FQuite cool.18 mph76%29.77 "HgN/A
7:20 AM39 °FChilly.17 mph75%29.74 "HgN/A
Weather by CustomWeather, © 2016

See weather overviewHow to use our weather pages